Location: Condor
(52.3263°N, 114.5541°W)
Time: 22:46:19
(UTC+00:00)

Oscar 19 - Pass Details

Date: 10 December 2023
Orbit: 771 x 789 km, 98.9° (Epoch: 04 March)

Event Time Altitude Azimuth Distance (km) Brightness Sun altitude
Rises 14:15:49 0° 8° (N) 3,277 13.7 -11.5°
Reaches altitude 10° 14:18:39 10° 352° (N) 2,348 12.8 -11.1°
Maximum altitude 14:22:22 21° 306° (NW) 1,730 11.8 -10.5°
Drops below altitude 10° 14:26:05 10° 260° (W) 2,346 12.6 -10.0°
Sets 14:28:56 0° 244° (WSW) 3,274 13.5 -9.6°
